QPF
0.00 0.00 0.00 0.00 0.00 0.00 0.00 0.00 0.00 0.00 0.00 0.00 0.00 0.00 0.00 0.00 0.00 0.00 0.00 0.00 0.01 0.01 0.02 0.03 0.03 0.02 0.02 0.05 0.11 0.14 0.11 0.08 0.04 0.03 0.03 0.04 0.05 0.05 0.05 0.07 0.06 0.04 0.03 0.03
0.00 0.00 0.00 0.00 0.00 0.00 0.00 0.00 0.00 0.00 0.00 0.00 0.01 0.01 0.01 0.00 0.00 0.00 0.00 0.01 0.01 0.02 0.02 0.03 0.03 0.03 0.02 0.03 0.04 0.05 0.05 0.06 0.06 0.04 0.03 0.03 0.04 0.05 0.04 0.05 0.06 0.05 0.03 0.05
0.00 0.00 0.00 0.00 0.00 0.00 0.00 0.00 0.00 0.00 0.00 0.01 0.01 0.02 0.02 0.01 0.01 0.00 0.01 0.02 0.02 0.02 0.02 0.02 0.02 0.02 0.02 0.02 0.02 0.03 0.04 0.04 0.05 0.05 0.04 0.03 0.04 0.03 0.02 0.04 0.06 0.05 0.04 0.08
0.00 0.00 0.00 0.00 0.00 0.00 0.00 0.00 0.00 0.00 0.01 0.02 0.01 0.03 0.03 0.02 0.01 0.01 0.01 0.02 0.02 0.02 0.02 0.02 0.02 0.02 0.02 0.02 0.02 0.02 0.02 0.02 0.04 0.06 0.05 0.04 0.05 0.06 0.05 0.05 0.06 0.05 0.06 0.07
0.00 0.00 0.00 0.00 0.00 0.00 0.00 0.00 0.00 0.00 0.01 0.01 0.01 0.02 0.03 0.02 0.01 0.02 0.02 0.02 0.03 0.03 0.02 0.02 0.02 0.02 0.03 0.02 0.03 0.02 0.03 0.03 0.05 0.06 0.04 0.03 0.04 0.06 0.07 0.05 0.06 0.05 0.05 0.05
0.00 0.00 0.00 0.00 0.00 0.00 0.00 0.01 0.01 0.01 0.01 0.02 0.01 0.02 0.03 0.02 0.01 0.02 0.03 0.03 0.03 0.03 0.03 0.02 0.03 0.03 0.03 0.03 0.03 0.03 0.04 0.04 0.05 0.05 0.03 0.03 0.06 0.07 0.08 0.06 0.07 0.05 0.05 0.04
0.01 0.01 0.00 0.00 0.00 0.00 0.00 0.03 0.03 0.02 0.02 0.02 0.01 0.02 0.03 0.03 0.02 0.02 0.03 0.04 0.03 0.03 0.03 0.03 0.03 0.04 0.03 0.02 0.02 0.02 0.03 0.03 0.03 0.03 0.04 0.05 0.07 0.07 0.07 0.08 0.07 0.06 0.06 0.04
0.01 0.01 0.01 0.01 0.00 0.00 0.01 0.03 0.03 0.02 0.02 0.02 0.01 0.02 0.03 0.02 0.02 0.02 0.03 0.05 0.04 0.03 0.03 0.02 0.02 0.03 0.03 0.02 0.02 0.03 0.03 0.02 0.02 0.03 0.05 0.07 0.08 0.06 0.06 0.07 0.07 0.07 0.07 0.05
0.01 0.01 0.01 0.01 0.01 0.00 0.01 0.03 0.03 0.02 0.01 0.02 0.02 0.02 0.03 0.02 0.02 0.02 0.03 0.05 0.05 0.05 0.03 0.02 0.01 0.02 0.02 0.01 0.02 0.02 0.03 0.03 0.03 0.05 0.07 0.09 0.08 0.06 0.06 0.06 0.05 0.06 0.06 0.05
0.01 0.01 0.01 0.01 0.01 0.01 0.00 0.01 0.03 0.03 0.03 0.03 0.02 0.02 0.02 0.02 0.02 0.02 0.02 0.04 0.06 0.07 0.04 0.03 0.01 0.02 0.02 0.01 0.01 0.01 0.01 0.02 0.04 0.08 0.09 0.07 0.07 0.06 0.05 0.05 0.04 0.04 0.05 0.05
0.00 0.01 0.02 0.02 0.03 0.02 0.01 0.02 0.02 0.02 0.02 0.02 0.02 0.02 0.01 0.02 0.03 0.04 0.03 0.04 0.07 0.07 0.05 0.03 0.02 0.02 0.01 0.01 0.01 0.01 0.02 0.03 0.05 0.09 0.09 0.05 0.05 0.05 0.05 0.05 0.05 0.06 0.06 0.05
0.00 0.02 0.03 0.03 0.01 0.01 0.01 0.02 0.02 0.03 0.02 0.02 0.02 0.02 0.01 0.02 0.03 0.04 0.03 0.03 0.05 0.06 0.05 0.03 0.02 0.02 0.01 0.01 0.01 0.02 0.03 0.03 0.06 0.09 0.09 0.08 0.07 0.05 0.05 0.06 0.05 0.05 0.05 0.04
0.00 0.02 0.02 0.02 0.02 0.01 0.01 0.01 0.01 0.01 0.01 0.02 0.03 0.03 0.01 0.02 0.02 0.02 0.03 0.02 0.03 0.05 0.04 0.02 0.02 0.02 0.01 0.01 0.02 0.03 0.03 0.02 0.06 0.10 0.10 0.09 0.07 0.06 0.07 0.06 0.04 0.04 0.04 0.03
0.00 0.02 0.02 0.02 0.02 0.01 0.01 0.01 0.01 0.01 0.01 0.01 0.02 0.02 0.03 0.03 0.02 0.02 0.02 0.02 0.02 0.03 0.03 0.02 0.02 0.02 0.02 0.02 0.02 0.03 0.03 0.03 0.06 0.11 0.10 0.10 0.09 0.07 0.06 0.06 0.05 0.04 0.03 0.03
0.00 0.01 0.01 0.01 0.01 0.01 0.00 0.00 0.01 0.01 0.01 0.01 0.02 0.03 0.02 0.02 0.03 0.03 0.02 0.02 0.02 0.03 0.03 0.02 0.02 0.02 0.02 0.02 0.01 0.02 0.03 0.06 0.08 0.07 0.07 0.08 0.07 0.06 0.04 0.04 0.05 0.05 0.04 0.03
0.00 0.01 0.01 0.01 0.00 0.00 0.00 0.00 0.00 0.00 0.00 0.01 0.02 0.02 0.01 0.01 0.01 0.02 0.03 0.03 0.02 0.02 0.02 0.03 0.02 0.01 0.02 0.03 0.02 0.02 0.04 0.07 0.07 0.06 0.05 0.05 0.06 0.06 0.04 0.03 0.03 0.03 0.03 0.03
0.00 0.01 0.01 0.01 0.00 0.01 0.01 0.00 0.00 0.00 0.00 0.01 0.02 0.02 0.01 0.01 0.02 0.03 0.03 0.02 0.02 0.02 0.02 0.03 0.02 0.02 0.03 0.03 0.03 0.03 0.05 0.07 0.06 0.06 0.05 0.05 0.05 0.05 0.03 0.02 0.02 0.03 0.04 0.04
0.01 0.01 0.01 0.01 0.01 0.01 0.01 0.00 0.00 0.00 0.00 0.01 0.02 0.03 0.04 0.04 0.04 0.03 0.03 0.02 0.02 0.02 0.02 0.02 0.02 0.03 0.02 0.02 0.03 0.03 0.04 0.05 0.05 0.06 0.06 0.05 0.04 0.03 0.02 0.02 0.02 0.02 0.03 0.04
0.00 0.01 0.02 0.01 0.01 0.01 0.01 0.00 0.00 0.00 0.01 0.01 0.02 0.04 0.05 0.04 0.03 0.02 0.02 0.02 0.02 0.02 0.02 0.02 0.02 0.03 0.02 0.02 0.03 0.04 0.03 0.04 0.04 0.05 0.04 0.02 0.02 0.02 0.02 0.03 0.03 0.03 0.02 0.01
0.01 0.01 0.01 0.01 0.01 0.01 0.01 0.00 0.00 0.01 0.01 0.01 0.03 0.03 0.03 0.02 0.02 0.02 0.02 0.02 0.02 0.03 0.04 0.05 0.05 0.02 0.02 0.03 0.03 0.04 0.02 0.02 0.02 0.03 0.03 0.02 0.01 0.01 0.01 0.02 0.02 0.02 0.01 0.01
0.01 0.01 0.01 0.01 0.01 0.01 0.01 0.00 0.00 0.02 0.02 0.01 0.02 0.01 0.01 0.01 0.02 0.02 0.01 0.01 0.02 0.02 0.03 0.04 0.03 0.02 0.03 0.02 0.02 0.03 0.02 0.02 0.01 0.01 0.02 0.01 0.01 0.01 0.01 0.01 0.01 0.01 0.01 0.01
0.02 0.02 0.02 0.01 0.01 0.02 0.01 0.01 0.02 0.02 0.01 0.01 0.01 0.01 0.01 0.01 0.02 0.02 0.01 0.01 0.01 0.02 0.02 0.02 0.03 0.04 0.04 0.03 0.02 0.01 0.01 0.01 0.01 0.01 0.01 0.01 0.01 0.01 0.01 0.00 0.01 0.01 0.02 0.02
0.02 0.02 0.02 0.02 0.02 0.02 0.02 0.03 0.03 0.02 0.02 0.01 0.01 0.02 0.02 0.02 0.02 0.02 0.02 0.02 0.01 0.02 0.02 0.02 0.02 0.03 0.03 0.02 0.01 0.01 0.00 0.01 0.01 0.01 0.01 0.01 0.01 0.01 0.01 0.01 0.01 0.01 0.02 0.02
0.02 0.01 0.01 0.01 0.01 0.01 0.01 0.01 0.01 0.01 0.02 0.02 0.02 0.02 0.01 0.01 0.02 0.02 0.02 0.03 0.01 0.02 0.02 0.02 0.02 0.02 0.01 0.01 0.01 0.00 0.00 0.01 0.01 0.01 0.01 0.01 0.01 0.01 0.01 0.02 0.01 0.01 0.01 0.01
0.01 0.01 0.01 0.01 0.01 0.01 0.01 0.00 0.00 0.01 0.01 0.01 0.01 0.01 0.01 0.01 0.01 0.01 0.01 0.02 0.02 0.02 0.02 0.02 0.02 0.01 0.01 0.01 0.00 0.00 0.00 0.01 0.01 0.01 0.01 0.01 0.01 0.02 0.02 0.02 0.02 0.02 0.02 0.01
0.01 0.01 0.01 0.01 0.01 0.01 0.00 0.00 0.00 0.00 0.00 0.00 0.00 0.00 0.00 0.01 0.01 0.01 0.01 0.01 0.01 0.01 0.01 0.01 0.01 0.01 0.01 0.01 0.00 0.00 0.00 0.01 0.01 0.01 0.01 0.01 0.01 0.01 0.01 0.01 0.02 0.02 0.03 0.02
MSLP
1009.99 1010.47 1010.91 1011.31 1011.69 1012.07 1012.47 1012.91 1013.37 1013.86 1014.34 1014.80 1015.20 1015.54 1015.80 1015.97 1016.08 1016.13 1016.15 1016.13 1016.11 1016.08 1016.05 1016.01 1015.96 1015.88 1015.78 1015.63 1015.43 1015.18 1014.88 1014.54 1014.18 1013.82 1013.49 1013.21 1013.00 1012.85 1012.76 1012.71 1012.68 1012.64 1012.58 1012.51
1010.33 1010.74 1011.10 1011.44 1011.76 1012.09 1012.46 1012.86 1013.30 1013.75 1014.21 1014.63 1015.00 1015.31 1015.55 1015.71 1015.83 1015.90 1015.95 1015.99 1016.01 1016.04 1016.05 1016.05 1016.02 1015.96 1015.85 1015.69 1015.48 1015.23 1014.94 1014.62 1014.29 1013.97 1013.68 1013.43 1013.23 1013.08 1012.98 1012.92 1012.86 1012.80 1012.73 1012.65
1010.72 1011.05 1011.34 1011.60 1011.87 1012.15 1012.47 1012.83 1013.22 1013.63 1014.02 1014.39 1014.70 1014.96 1015.17 1015.32 1015.44 1015.54 1015.64 1015.74 1015.84 1015.93 1016.01 1016.05 1016.05 1016.00 1015.89 1015.73 1015.51 1015.26 1014.98 1014.68 1014.37 1014.08 1013.82 1013.58 1013.39 1013.24 1013.13 1013.05 1012.98 1012.92 1012.86 1012.80
1011.17 1011.42 1011.64 1011.84 1012.05 1012.29 1012.56 1012.87 1013.20 1013.54 1013.86 1014.15 1014.39 1014.59 1014.74 1014.87 1015.00 1015.13 1015.27 1015.44 1015.61 1015.77 1015.91 1016.00 1016.03 1015.99 1015.89 1015.72 1015.50 1015.25 1014.97 1014.68 1014.40 1014.13 1013.88 1013.67 1013.48 1013.33 1013.21 1013.12 1013.05 1013.01 1012.97 1012.94
1011.66 1011.84 1012.00 1012.15 1012.32 1012.52 1012.75 1013.01 1013.28 1013.55 1013.79 1013.99 1014.15 1014.27 1014.36 1014.46 1014.57 1014.72 1014.91 1015.13 1015.37 1015.59 1015.78 1015.91 1015.96 1015.93 1015.83 1015.65 1015.43 1015.17 1014.90 1014.62 1014.36 1014.11 1013.88 1013.67 1013.49 1013.34 1013.22 1013.13 1013.08 1013.05 1013.05 1013.07
1012.14 1012.27 1012.39 1012.51 1012.66 1012.83 1013.03 1013.25 1013.46 1013.66 1013.82 1013.94 1014.01 1014.06 1014.09 1014.15 1014.25 1014.40 1014.61 1014.87 1015.14 1015.41 1015.63 1015.78 1015.85 1015.82 1015.70 1015.51 1015.28 1015.02 1014.75 1014.48 1014.24 1014.01 1013.80 1013.61 1013.44 1013.29 1013.17 1013.09 1013.05 1013.04 1013.08 1013.15
1012.59 1012.68 1012.78 1012.89 1013.02 1013.18 1013.36 1013.54 1013.72 1013.86 1013.96 1014.00 1014.01 1013.98 1013.97 1013.98 1014.05 1014.20 1014.41 1014.68 1014.97 1015.25 1015.48 1015.64 1015.69 1015.64 1015.51 1015.30 1015.06 1014.79 1014.52 1014.27 1014.05 1013.84 1013.66 1013.49 1013.33 1013.20 1013.09 1013.01 1012.98 1013.00 1013.06 1013.16
1012.95 1013.04 1013.12 1013.22 1013.35 1013.50 1013.67 1013.84 1013.98 1014.09 1014.14 1014.14 1014.09 1014.03 1013.96 1013.95 1013.99 1014.12 1014.32 1014.58 1014.87 1015.14 1015.35 1015.48 1015.51 1015.44 1015.28 1015.05 1014.78 1014.51 1014.25 1014.02 1013.82 1013.65 1013.49 1013.35 1013.21 1013.09 1012.99 1012.92 1012.89 1012.91 1012.98 1013.09
1013.23 1013.30 1013.38 1013.48 1013.60 1013.75 1013.91 1014.06 1014.20 1014.28 1014.31 1014.29 1014.21 1014.12 1014.04 1014.00 1014.04 1014.14 1014.33 1014.56 1014.82 1015.06 1015.24 1015.34 1015.33 1015.23 1015.04 1014.79 1014.51 1014.24 1013.99 1013.78 1013.61 1013.46 1013.34 1013.23 1013.12 1013.01 1012.91 1012.84 1012.80 1012.81 1012.87 1012.98
1013.41 1013.48 1013.56 1013.64 1013.76 1013.89 1014.03 1014.18 1014.30 1014.38 1014.40 1014.37 1014.30 1014.21 1014.13 1014.09 1014.12 1014.21 1014.38 1014.59 1014.81 1015.02 1015.16 1015.22 1015.18 1015.04 1014.83 1014.57 1014.29 1014.02 1013.79 1013.60 1013.46 1013.35 1013.26 1013.17 1013.08 1012.99 1012.89 1012.81 1012.76 1012.75 1012.79 1012.87
1013.53 1013.60 1013.66 1013.73 1013.81 1013.92 1014.04 1014.16 1014.27 1014.34 1014.37 1014.35 1014.30 1014.23 1014.16 1014.14 1014.17 1014.26 1014.41 1014.60 1014.80 1014.98 1015.09 1015.12 1015.06 1014.91 1014.69 1014.43 1014.16 1013.91 1013.70 1013.54 1013.43 1013.35 1013.28 1013.22 1013.15 1013.06 1012.96 1012.87 1012.79 1012.75 1012.76 1012.81
1013.62 1013.68 1013.72 1013.76 1013.81 1013.88 1013.96 1014.04 1014.12 1014.18 1014.21 1014.20 1014.17 1014.13 1014.09 1014.09 1014.14 1014.24 1014.40 1014.58 1014.76 1014.92 1015.01 1015.03 1014.97 1014.82 1014.62 1014.38 1014.14 1013.92 1013.74 1013.61 1013.53 1013.47 1013.43 1013.38 1013.31 1013.22 1013.12 1013.01 1012.91 1012.84 1012.82 1012.83
1013.70 1013.75 1013.77 1013.77 1013.77 1013.79 1013.82 1013.85 1013.90 1013.93 1013.95 1013.94 1013.93 1013.91 1013.91 1013.93 1014.01 1014.12 1014.29 1014.47 1014.65 1014.81 1014.91 1014.94 1014.89 1014.77 1014.61 1014.41 1014.21 1014.04 1013.90 1013.80 1013.74 1013.71 1013.67 1013.63 1013.56 1013.47 1013.35 1013.22 1013.11 1013.01 1012.96 1012.95
1013.76 1013.80 1013.80 1013.77 1013.73 1013.68 1013.65 1013.64 1013.63 1013.62 1013.62 1013.60 1013.59 1013.59 1013.61 1013.66 1013.76 1013.90 1014.08 1014.28 1014.47 1014.64 1014.76 1014.82 1014.81 1014.74 1014.62 1014.48 1014.34 1014.21 1014.12 1014.05 1014.02 1014.00 1013.97 1013.92 1013.85 1013.74 1013.61 1013.47 1013.33 1013.21 1013.14 1013.11
1013.78 1013.82 1013.80 1013.74 1013.66 1013.57 1013.49 1013.41 1013.35 1013.30 1013.26 1013.22 1013.20 1013.20 1013.23 1013.31 1013.43 1013.59 1013.79 1014.01 1014.23 1014.42 1014.57 1014.67 1014.70 1014.68 1014.62 1014.54 1014.46 1014.39 1014.33 1014.31 1014.29 1014.28 1014.25 1014.20 1014.11 1013.99 1013.84 1013.68 1013.52 1013.39 1013.31 1013.26
1013.70 1013.75 1013.73 1013.66 1013.56 1013.44 1013.31 1013.19 1013.08 1012.98 1012.89 1012.83 1012.79 1012.78 1012.82 1012.91 1013.05 1013.24 1013.46 1013.70 1013.94 1014.16 1014.35 1014.48 1014.56 1014.58 1014.58 1014.55 1014.52 1014.50 1014.49 1014.49 1014.49 1014.49 1014.46 1014.40 1014.29 1014.15 1013.99 1013.81 1013.64 1013.50 1013.40 1013.34
1013.50 1013.56 1013.55 1013.50 1013.40 1013.27 1013.12 1012.96 1012.80 1012.66 1012.53 1012.43 1012.37 1012.36 1012.40 1012.50 1012.66 1012.87 1013.12 1013.38 1013.65 1013.89 1014.10 1014.26 1014.37 1014.43 1014.47 1014.48 1014.49 1014.51 1014.53 1014.56 1014.58 1014.58 1014.56 1014.49 1014.37 1014.22 1014.03 1013.83 1013.65 1013.49 1013.38 1013.31
1013.15 1013.24 1013.27 1013.24 1013.16 1013.04 1012.89 1012.71 1012.52 1012.34 1012.18 1012.05 1011.96 1011.94 1011.98 1012.10 1012.28 1012.52 1012.80 1013.09 1013.38 1013.64 1013.86 1014.03 1014.16 1014.24 1014.29 1014.32 1014.36 1014.40 1014.45 1014.50 1014.54 1014.55 1014.53 1014.46 1014.34 1014.17 1013.98 1013.76 1013.56 1013.38 1013.25 1013.17
1012.71 1012.83 1012.91 1012.92 1012.88 1012.78 1012.64 1012.45 1012.24 1012.03 1011.83 1011.67 1011.57 1011.54 1011.60 1011.73 1011.95 1012.22 1012.52 1012.84 1013.15 1013.43 1013.65 1013.82 1013.94 1014.01 1014.07 1014.10 1014.14 1014.20 1014.26 1014.33 1014.38 1014.42 1014.41 1014.35 1014.23 1014.06 1013.86 1013.63 1013.41 1013.21 1013.06 1012.96
1012.27 1012.44 1012.57 1012.63 1012.63 1012.55 1012.41 1012.21 1011.97 1011.72 1011.50 1011.31 1011.19 1011.16 1011.23 1011.39 1011.64 1011.94 1012.29 1012.64 1012.96 1013.25 1013.47 1013.63 1013.73 1013.79 1013.83 1013.85 1013.89 1013.94 1014.01 1014.09 1014.17 1014.22 1014.23 1014.19 1014.09 1013.93 1013.73 1013.50 1013.26 1013.05 1012.88 1012.75
1011.97 1012.19 1012.36 1012.47 1012.49 1012.42 1012.26 1012.04 1011.76 1011.47 1011.20 1010.97 1010.83 1010.80 1010.87 1011.06 1011.33 1011.68 1012.06 1012.44 1012.79 1013.09 1013.31 1013.46 1013.55 1013.58 1013.60 1013.60 1013.62 1013.67 1013.74 1013.84 1013.93 1014.01 1014.04 1014.03 1013.96 1013.81 1013.62 1013.40 1013.16 1012.94 1012.75 1012.61
1011.93 1012.20 1012.41 1012.53 1012.56 1012.47 1012.27 1011.99 1011.65 1011.30 1010.96 1010.69 1010.51 1010.45 1010.52 1010.72 1011.02 1011.40 1011.81 1012.23 1012.60 1012.92 1013.15 1013.29 1013.37 1013.39 1013.39 1013.38 1013.39 1013.43 1013.50 1013.60 1013.71 1013.81 1013.88 1013.89 1013.84 1013.73 1013.56 1013.35 1013.12 1012.90 1012.71 1012.56
1012.25 1012.56 1012.78 1012.90 1012.89 1012.75 1012.49 1012.12 1011.69 1011.24 1010.82 1010.47 1010.24 1010.14 1010.18 1010.37 1010.68 1011.08 1011.51 1011.95 1012.35 1012.69 1012.93 1013.09 1013.17 1013.20 1013.19 1013.18 1013.19 1013.22 1013.30 1013.40 1013.52 1013.64 1013.72 1013.76 1013.73 1013.65 1013.50 1013.32 1013.11 1012.90 1012.72 1012.57
1012.95 1013.28 1013.49 1013.57 1013.50 1013.28 1012.91 1012.44 1011.89 1011.33 1010.80 1010.36 1010.04 1009.87 1009.87 1010.02 1010.31 1010.70 1011.14 1011.59 1012.01 1012.37 1012.64 1012.83 1012.93 1012.98 1012.99 1012.99 1013.00 1013.05 1013.12 1013.23 1013.35 1013.47 1013.56 1013.60 1013.59 1013.52 1013.40 1013.24 1013.05 1012.87 1012.71 1012.58
1013.96 1014.29 1014.47 1014.49 1014.33 1014.00 1013.52 1012.91 1012.24 1011.55 1010.90 1010.35 1009.93 1009.67 1009.59 1009.68 1009.92 1010.28 1010.70 1011.14 1011.57 1011.94 1012.25 1012.47 1012.61 1012.70 1012.75 1012.78 1012.81 1012.87 1012.95 1013.05 1013.16 1013.26 1013.34 1013.37 1013.36 1013.30 1013.19 1013.04 1012.88 1012.73 1012.59 1012.48
1015.16 1015.46 1015.58 1015.52 1015.25 1014.81 1014.20 1013.48 1012.69 1011.88 1011.12 1010.45 1009.92 1009.57 1009.39 1009.39 1009.55 1009.83 1010.20 1010.61 1011.02 1011.40 1011.73 1011.99 1012.18 1012.32 1012.42 1012.50 1012.57 1012.64 1012.73 1012.82 1012.90 1012.97 1013.02 1013.03 1013.00 1012.92 1012.81 1012.67 1012.53 1012.40 1012.29 1012.21
Thickness
5759 5752 5746 5749 5752 5751 5748 5743 5739 5742 5745 5739 5734 5732 5732 5733 5731 5729 5729 5728 5727 5725 5726 5726 5725 5724 5723 5721 5718 5715 5713 5711 5710 5710 5708 5707 5706 5706 5705 5703 5701 5700 5700 5700
5751 5745 5752 5754 5751 5746 5743 5737 5737 5737 5738 5733 5729 5726 5729 5728 5727 5726 5725 5723 5721 5720 5720 5720 5719 5719 5718 5716 5715 5713 5711 5709 5708 5707 5706 5704 5703 5703 5702 5700 5699 5698 5697 5697
5745 5750 5753 5746 5742 5737 5738 5736 5735 5731 5730 5731 5725 5719 5720 5723 5725 5723 5722 5721 5719 5716 5715 5715 5714 5714 5714 5711 5711 5711 5708 5706 5706 5705 5705 5703 5701 5700 5700 5698 5697 5696 5695 5694
5749 5752 5747 5741 5738 5736 5731 5738 5734 5729 5722 5723 5721 5712 5716 5719 5717 5717 5717 5717 5715 5714 5713 5712 5712 5711 5710 5709 5709 5708 5706 5704 5703 5702 5701 5699 5697 5697 5697 5696 5695 5694 5692 5692
5744 5746 5741 5736 5736 5734 5732 5736 5732 5727 5723 5720 5719 5712 5717 5719 5712 5713 5713 5713 5713 5712 5711 5709 5709 5709 5708 5708 5707 5706 5703 5701 5700 5700 5698 5697 5697 5696 5695 5694 5692 5691 5691 5689
5746 5749 5744 5739 5740 5737 5734 5729 5726 5724 5723 5707 5714 5709 5711 5716 5713 5712 5712 5710 5709 5709 5708 5707 5707 5707 5706 5705 5704 5703 5700 5699 5698 5697 5696 5695 5694 5693 5691 5690 5689 5689 5688 5687
5735 5739 5742 5742 5732 5732 5728 5717 5709 5708 5708 5711 5718 5710 5709 5715 5716 5713 5710 5707 5706 5706 5706 5705 5704 5703 5702 5701 5701 5700 5698 5696 5696 5695 5694 5693 5692 5690 5689 5688 5687 5685 5685 5684
5724 5724 5733 5735 5729 5725 5723 5717 5703 5697 5704 5712 5713 5707 5710 5714 5715 5713 5710 5707 5705 5704 5705 5703 5702 5701 5701 5700 5699 5698 5697 5695 5695 5695 5693 5692 5690 5690 5689 5686 5685 5683 5682 5681
5723 5721 5733 5733 5733 5728 5720 5718 5723 5712 5711 5705 5710 5710 5708 5711 5708 5707 5705 5704 5702 5702 5702 5703 5701 5700 5700 5699 5697 5696 5695 5694 5694 5693 5692 5690 5689 5687 5686 5684 5682 5681 5680 5679
5727 5715 5726 5729 5729 5726 5727 5722 5714 5707 5694 5695 5703 5704 5703 5702 5702 5704 5703 5702 5702 5702 5702 5702 5700 5699 5699 5698 5696 5695 5694 5693 5693 5692 5691 5690 5688 5686 5684 5682 5680 5678 5677 5675
5728 5714 5718 5721 5715 5715 5715 5713 5711 5710 5708 5697 5693 5699 5713 5706 5705 5704 5703 5703 5703 5702 5702 5701 5699 5699 5698 5697 5695 5693 5693 5692 5691 5690 5688 5687 5686 5684 5682 5680 5678 5676 5674 5672
5723 5717 5711 5716 5724 5726 5722 5716 5710 5698 5699 5704 5699 5697 5713 5711 5708 5705 5704 5703 5703 5702 5702 5701 5700 5698 5697 5695 5694 5692 5692 5690 5689 5688 5686 5684 5683 5681 5679 5677 5675 5673 5671 5669
5719 5710 5702 5705 5709 5715 5714 5715 5714 5711 5705 5699 5692 5696 5710 5709 5706 5704 5703 5703 5702 5701 5701 5700 5699 5697 5695 5694 5692 5691 5690 5689 5688 5686 5684 5682 5680 5678 5676 5674 5672 5670 5668 5666
5718 5711 5704 5698 5702 5709 5708 5710 5711 5707 5700 5696 5697 5698 5704 5704 5702 5702 5702 5701 5701 5700 5699 5698 5696 5695 5694 5692 5690 5689 5688 5686 5685 5684 5682 5680 5677 5675 5673 5671 5669 5668 5666 5664
5715 5709 5709 5710 5712 5712 5708 5707 5707 5704 5702 5697 5697 5699 5701 5703 5702 5702 5701 5700 5699 5698 5697 5695 5694 5693 5692 5690 5689 5687 5685 5684 5682 5681 5679 5677 5675 5672 5671 5669 5667 5665 5663 5662
5711 5705 5706 5705 5710 5709 5705 5706 5706 5703 5703 5701 5700 5698 5705 5705 5704 5701 5700 5699 5697 5696 5696 5695 5694 5693 5691 5689 5687 5685 5684 5682 5680 5678 5676 5675 5673 5671 5669 5667 5665 5663 5661 5659
5709 5702 5699 5701 5707 5702 5695 5702 5703 5702 5703 5702 5696 5698 5703 5700 5699 5699 5699 5698 5697 5696 5696 5694 5693 5691 5690 5688 5686 5684 5682 5680 5678 5676 5674 5673 5671 5669 5667 5666 5663 5660 5658 5656
5701 5699 5700 5700 5696 5681 5698 5710 5707 5701 5700 5702 5701 5702 5702 5700 5701 5702 5701 5699 5697 5696 5695 5694 5693 5691 5690 5688 5686 5683 5681 5678 5676 5674 5673 5671 5669 5667 5665 5663 5660 5658 5656 5653
5701 5696 5697 5695 5692 5693 5699 5703 5701 5697 5695 5701 5700 5700 5701 5702 5700 5699 5701 5699 5697 5696 5694 5693 5692 5692 5689 5687 5685 5682 5679 5678 5675 5673 5671 5670 5668 5665 5662 5660 5657 5655 5653 5651
5697 5695 5694 5692 5684 5681 5690 5702 5707 5699 5690 5699 5699 5697 5698 5696 5692 5695 5699 5698 5697 5695 5694 5692 5692 5691 5688 5686 5684 5680 5678 5676 5674 5672 5671 5669 5666 5663 5660 5658 5655 5654 5651 5649
5689 5688 5687 5687 5683 5689 5694 5701 5702 5684 5682 5694 5696 5696 5695 5693 5694 5696 5697 5695 5694 5692 5692 5691 5690 5687 5686 5684 5682 5678 5677 5674 5673 5672 5670 5667 5664 5661 5658 5656 5653 5652 5650 5647
5687 5687 5683 5684 5679 5680 5693 5693 5686 5684 5690 5692 5693 5694 5692 5693 5693 5693 5693 5691 5690 5690 5689 5688 5686 5684 5684 5682 5680 5677 5674 5674 5672 5669 5667 5664 5661 5660 5657 5653 5651 5649 5647 5645
5686 5684 5686 5683 5681 5683 5688 5685 5685 5687 5686 5687 5688 5690 5689 5689 5689 5689 5688 5688 5687 5687 5686 5685 5683 5682 5681 5680 5679 5676 5674 5672 5670 5666 5664 5661 5659 5656 5654 5651 5649 5647 5646 5645
5682 5681 5679 5676 5680 5681 5682 5682 5683 5683 5682 5684 5685 5686 5686 5685 5685 5684 5684 5684 5684 5684 5683 5682 5681 5679 5678 5678 5677 5675 5673 5670 5667 5664 5661 5659 5656 5654 5651 5649 5649 5647 5645 5644
5674 5673 5673 5671 5674 5676 5677 5677 5678 5679 5680 5680 5681 5682 5682 5681 5680 5680 5680 5680 5680 5680 5680 5679 5678 5677 5676 5676 5675 5674 5671 5668 5665 5662 5659 5657 5656 5653 5650 5648 5645 5644 5641 5640
5670 5668 5667 5668 5670 5669 5670 5674 5675 5674 5674 5675 5676 5676 5677 5677 5676 5676 5675 5676 5676 5676 5677 5676 5675 5675 5675 5674 5673 5671 5669 5666 5663 5660 5657 5657 5655 5653 5651 5648 5644 5638 5637 5634